• In Latvia
  • List of Countries
  • For 7 days
  • Water Temperature
  • Satellite Maps
  • Weather Map
  • Weather Widgets
  • user-avatar
    Login

    Hourly Weather Borzhomi

    Today, 24 October, Tuesday

    Time Temperature Precipitation Wind Pressure Humidity
    00:00 +8°C° 0 mm 3 mps 666 mmHg 70%
    01:00 +7°C° 0 mm 3 mps 666 mmHg 71%
    02:00 +7°C° 0 mm 3 mps 666 mmHg 71%
    03:00 +7°C° 0 mm 3 mps 666 mmHg 71%
    04:00 +7°C° 0 mm 3 mps 666 mmHg 70%
    05:00 +7°C° 0 mm 3 mps 666 mmHg 70%
    06:00 +7°C° 0 mm 3 mps 666 mmHg 69%
    07:00 +8°C° 0 mm 3 mps 666 mmHg 64%
    08:00 +10°C° 0 mm 3 mps 666 mmHg 59%
    09:00 +11°C° 0 mm 3 mps 667 mmHg 55%
    10:00 +13°C° 0 mm 3 mps 667 mmHg 50%
    11:00 +14°C° 0 mm 3 mps 667 mmHg 46%
    12:00 +17°C° 0 mm 3 mps 667 mmHg 41%
    13:00 +17°C° 0 mm 3 mps 667 mmHg 41%
    14:00 +17°C° 0 mm 3 mps 667 mmHg 41%
    15:00 +18°C° 0 mm 3 mps 667 mmHg 41%
    16:00 +16°C° 0 mm 2 mps 667 mmHg 47%
    17:00 +14°C° 0 mm 2 mps 666 mmHg 54%
    18:00 +12°C° 0 mm 2 mps 666 mmHg 61%
    19:00 +10°C° 0 mm 2 mps 667 mmHg 59%
    20:00 +10°C° 0 mm 2 mps 667 mmHg 58%
    21:00 +9°C° 0 mm 2 mps 667 mmHg 57%
    22:00 +9°C° 0 mm 2 mps 667 mmHg 56%
    23:00 +9°C° 0 mm 2 mps 667 mmHg 56%

    Tomorrow, 25 October, Wednesday

    Time Temperature Precipitation Wind Pressure Humidity
    00:00 +9°C° 0 mm 2 mps 667 mmHg 55%
    01:00 +9°C° 0 mm 2 mps 667 mmHg 55%
    02:00 +9°C° 0 mm 2 mps 667 mmHg 55%
    03:00 +9°C° 0 mm 2 mps 667 mmHg 55%
    04:00 +8°C° 0 mm 2 mps 667 mmHg 56%
    05:00 +8°C° 0 mm 2 mps 667 mmHg 56%
    06:00 +8°C° 0 mm 2 mps 667 mmHg 57%
    07:00 +10°C° 0 mm 2 mps 668 mmHg 53%
    08:00 +13°C° 0 mm 2 mps 668 mmHg 49%
    09:00 +15°C° 0 mm 2 mps 669 mmHg 45%
    10:00 +17°C° 0 mm 2 mps 669 mmHg 41%
    11:00 +19°C° 0 mm 3 mps 669 mmHg 38%
    12:00 +20°C° 0 mm 3 mps 669 mmHg 34%
    13:00 +21°C° 0 mm 2 mps 669 mmHg 34%
    14:00 +21°C° 0 mm 2 mps 669 mmHg 35%
    15:00 +21°C° 0 mm 2 mps 669 mmHg 35%
    16:00 +18°C° 0 mm 2 mps 668 mmHg 42%
    17:00 +16°C° 0 mm 2 mps 668 mmHg 48%
    18:00 +14°C° 0 mm 1 mps 668 mmHg 54%
    19:00 +14°C° 0 mm 1 mps 668 mmHg 54%
    20:00 +13°C° 0 mm 2 mps 668 mmHg 54%
    21:00 +13°C° 0 mm 2 mps 668 mmHg 54%
    22:00 +12°C° 0 mm 2 mps 668 mmHg 54%
    23:00 +12°C° 0 mm 2 mps 668 mmHg 53%

    Day after tomorrow, 26 October, Thursday

    Time Temperature Precipitation Wind Pressure Humidity
    00:00 +12°C° 0 mm 2 mps 668 mmHg 53%
    01:00 +10°C° 0 mm 2 mps 668 mmHg 53%
    02:00 +10°C° 0 mm 2 mps 668 mmHg 53%
    03:00 +10°C° 0 mm 2 mps 668 mmHg 53%
    04:00 +10°C° 0 mm 2 mps 667 mmHg 54%
    05:00 +9°C° 0 mm 2 mps 667 mmHg 55%
    06:00 +10°C° 0 mm 1 mps 667 mmHg 55%
    07:00 +12°C° 0 mm 1 mps 668 mmHg 52%
    08:00 +14°C° 0 mm 1 mps 668 mmHg 48%
    09:00 +15°C° 0 mm 1 mps 669 mmHg 45%
    10:00 +16°C° 0 mm 1 mps 669 mmHg 43%
    11:00 +17°C° 0 mm 2 mps 669 mmHg 42%
    12:00 +18°C° 0 mm 2 mps 669 mmHg 40%
    13:00 +18°C° 0 mm 3 mps 668 mmHg 44%
    14:00 +17°C° 0 mm 3 mps 668 mmHg 48%
    15:00 +17°C° 0 mm 3 mps 668 mmHg 51%
    16:00 +15°C° 0 mm 2 mps 668 mmHg 63%
    17:00 +13°C° 0 mm 2 mps 667 mmHg 75%
    18:00 +12°C° 0 mm 2 mps 667 mmHg 87%
    19:00 +11°C° 0 mm 1 mps 667 mmHg 89%
    20:00 +11°C° 0 mm 1 mps 667 mmHg 91%
    21:00 +10°C° 0 mm 1 mps 668 mmHg 93%
    22:00 +10°C° 0 mm 1 mps 668 mmHg 93%
    23:00 +10°C° 0 mm 1 mps 667 mmHg 92%

    27 October, Friday

    Time Temperature Precipitation Wind Pressure Humidity
    00:00 +10°C° 0 mm 1 mps 667 mmHg 92%
    01:00 +10°C° 0.1 mm 1 mps 667 mmHg 92%
    02:00 +9°C° 0.1 mm 1 mps 667 mmHg 92%
    03:00 +9°C° 0.1 mm 1 mps 667 mmHg 92%
    04:00 +9°C° 0.2 mm 1 mps 667 mmHg 91%
    05:00 +9°C° 0.2 mm 1 mps 667 mmHg 90%
    06:00 +9°C° 0.2 mm 1 mps 668 mmHg 89%
    07:00 +10°C° 0.1 mm 1 mps 668 mmHg 84%
    08:00 +11°C° 0.1 mm 1 mps 668 mmHg 80%
    09:00 +12°C° 0.1 mm 1 mps 669 mmHg 76%
    10:00 +12°C° 0.1 mm 1 mps 669 mmHg 73%
    11:00 +13°C° 0.1 mm 1 mps 669 mmHg 71%
    12:00 +14°C° 0.1 mm 2 mps 668 mmHg 69%
    13:00 +13°C° 0.1 mm 2 mps 668 mmHg 70%
    14:00 +13°C° 0.1 mm 2 mps 668 mmHg 72%
    15:00 +13°C° 0.1 mm 2 mps 667 mmHg 74%
    16:00 +12°C° 0 mm 1 mps 667 mmHg 80%
    17:00 +11°C° 0 mm 1 mps 667 mmHg 86%
    18:00 +10°C° 0 mm 1 mps 667 mmHg 93%
    19:00 +9°C° 0 mm 1 mps 667 mmHg 92%
    20:00 +9°C° 0 mm 1 mps 667 mmHg 92%
    21:00 +9°C° 0 mm 1 mps 667 mmHg 91%
    22:00 +9°C° 0 mm 1 mps 666 mmHg 89%
    23:00 +8°C° 0 mm 1 mps 666 mmHg 88%

    28 October, Saturday

    Time Temperature Precipitation Wind Pressure Humidity
    00:00 +7°C° 0 mm 2 mps 666 mmHg 86%
    01:00 +7°C° 0 mm 2 mps 666 mmHg 84%
    02:00 +7°C° 0 mm 2 mps 665 mmHg 83%
    03:00 +7°C° 0 mm 2 mps 665 mmHg 81%
    04:00 +7°C° 0 mm 2 mps 665 mmHg 80%
    05:00 +7°C° 0 mm 2 mps 665 mmHg 79%
    06:00 +6°C° 0 mm 2 mps 665 mmHg 77%
    07:00 +8°C° 0 mm 2 mps 665 mmHg 70%
    08:00 +10°C° 0 mm 2 mps 665 mmHg 63%
    09:00 +12°C° 0 mm 3 mps 666 mmHg 55%
    10:00 +14°C° 0 mm 3 mps 665 mmHg 50%
    11:00 +16°C° 0 mm 3 mps 665 mmHg 44%
    12:00 +18°C° 0 mm 3 mps 665 mmHg 39%
    13:00 +18°C° 0 mm 3 mps 665 mmHg 39%
    14:00 +18°C° 0 mm 3 mps 665 mmHg 40%
    15:00 +18°C° 0 mm 3 mps 664 mmHg 41%
    16:00 +17°C° 0.1 mm 3 mps 664 mmHg 48%
    17:00 +15°C° 0.1 mm 2 mps 664 mmHg 55%
    18:00 +13°C° 0.1 mm 2 mps 663 mmHg 62%
    19:00 +13°C° 0.4 mm 2 mps 663 mmHg 66%
    20:00 +12°C° 0.4 mm 2 mps 663 mmHg 71%
    21:00 +12°C° 0.4 mm 2 mps 663 mmHg 75%
    22:00 +10°C° 0.3 mm 2 mps 662 mmHg 77%
    23:00 +10°C° 0.3 mm 2 mps 662 mmHg 78%

    29 October, Sunday

    Time Temperature Precipitation Wind Pressure Humidity
    00:00 +10°C° 0.3 mm 2 mps 662 mmHg 79%
    01:00 +10°C° 0.3 mm 2 mps 662 mmHg 80%
    02:00 +11°C° 0.3 mm 1 mps 662 mmHg 81%
    03:00 +10°C° 0.3 mm 1 mps 662 mmHg 82%
    04:00 +10°C° 0.8 mm 1 mps 662 mmHg 83%
    05:00 +10°C° 0.8 mm 1 mps 662 mmHg 85%
    06:00 +10°C° 0.8 mm 1 mps 662 mmHg 86%
    07:00 +11°C° 0 mm 1 mps 663 mmHg 80%
    08:00 +12°C° 0 mm 1 mps 663 mmHg 75%
    09:00 +13°C° 0 mm 1 mps 664 mmHg 70%
    10:00 +14°C° 0 mm 1 mps 664 mmHg 65%
    11:00 +16°C° 0 mm 1 mps 665 mmHg 60%
    12:00 +17°C° 0 mm 2 mps 665 mmHg 54%
    13:00 +18°C° 0.1 mm 1 mps 665 mmHg 54%
    14:00 +18°C° 0.1 mm 1 mps 665 mmHg 54%
    15:00 +16°C° 0.1 mm 1 mps 665 mmHg 54%
    16:00 +15°C° 0.1 mm 1 mps 665 mmHg 62%
    17:00 +13°C° 0.1 mm 1 mps 664 mmHg 69%
    18:00 +11°C° 0.1 mm 0 mps 664 mmHg 76%
    19:00 +12°C° 0 mm 1 mps 665 mmHg 75%
    20:00 +11°C° 0 mm 1 mps 665 mmHg 75%
    21:00 +11°C° 0 mm 1 mps 665 mmHg 74%
    22:00 +11°C° 0 mm 1 mps 665 mmHg 73%
    23:00 +9°C° 0 mm 2 mps 665 mmHg 72%

    30 October, Monday

    Time Temperature Precipitation Wind Pressure Humidity
    00:00 +9°C° 0 mm 2 mps 665 mmHg 71%
    01:00 +9°C° 0 mm 2 mps 665 mmHg 72%
    02:00 +9°C° 0 mm 2 mps 665 mmHg 72%
    03:00 +9°C° 0 mm 2 mps 666 mmHg 72%
    04:00 +8°C° 0 mm 2 mps 666 mmHg 73%
    05:00 +8°C° 0 mm 2 mps 666 mmHg 73%
    06:00 +8°C° 0 mm 2 mps 666 mmHg 74%
    07:00 +10°C° 0 mm 2 mps 666 mmHg 69%
    08:00 +13°C° 0 mm 2 mps 667 mmHg 64%
    09:00 +14°C° 0 mm 2 mps 667 mmHg 60%
    10:00 +16°C° 0 mm 3 mps 668 mmHg 55%
    11:00 +17°C° 0 mm 3 mps 668 mmHg 50%
    12:00 +19°C° 0 mm 3 mps 668 mmHg 45%
    13:00 +19°C° 0 mm 3 mps 668 mmHg 45%
    14:00 +19°C° 0 mm 3 mps 667 mmHg 44%
    15:00 +19°C° 0 mm 3 mps 667 mmHg 44%
    16:00 +17°C° 0 mm 2 mps 667 mmHg 50%
    17:00 +15°C° 0 mm 2 mps 667 mmHg 57%
    18:00 +13°C° 0 mm 2 mps 666 mmHg 63%
    19:00 +13°C° 0 mm 2 mps 666 mmHg 64%
    20:00 +13°C° 0 mm 2 mps 666 mmHg 64%
    21:00 +12°C° 0 mm 2 mps 666 mmHg 64%
    22:00 +12°C° 0 mm 2 mps 666 mmHg 65%
    23:00 +12°C° 0 mm 2 mps 666 mmHg 65%
    Show more